Weather History for Sheridan, WY

Change the Weather History Date:

Saturday, April 20, 2013

  Actual Average Record
Temperature  
Mean Temperature 45 °F 45 °F  
Max Temperature 58 °F 59 °F 85 °F (1980)
Min Temperature 32 °F 31 °F 3 °F (1966)
Degree Days  
Heating Degree Days 20 20  
Month to date heating degree days 566 455  
Since 1 July heating degree days 6845 6914  
Cooling Degree Days 0 0  
Month to date cooling degree days 0 0  
Year to date cooling degree days 0 0  
Moisture  
Dew Point 33 °F    
Average Humidity 63    
Maximum Humidity 89    
Minimum Humidity 36    
Precipitation  
Precipitation 0.04 in 0.05 in 0.65 in (1933)
Month to date precipitation 1.03 0.92  
Year to date precipitation 3.05 3.00  
Sea Level Pressure  
Sea Level Pressure 29.87 in    
Wind  
Wind Speed 9 mph (West)    
Max Wind Speed 30 mph    
Max Gust Speed 38 mph    
Visibility 10 miles    
Events Rain    
T = Trace of Precipitation, MM = Missing Value Source: NWS Daily Summary

Daily Weather History Graph

Daily Weather History Graph

Search for Another Location

Airport:

Trip Planner

Search our weather history database for the weather conditions in past years. The results will help you decide how hot, cold, wet, or windy it might be!

Date:

Astronomy

Apr. 20, 2013 Rise Set
Actual Time 6:14 AM MDT 7:59 PM MDT
Civil Twilight 5:43 AM MDT 8:30 PM MDT
Nautical Twilight 5:05 AM MDT 9:08 PM MDT
Astronomical Twilight 4:24 AM MDT 9:49 PM MDT
Moon 2:33 PM MDT (4/20) 3:19 AM MDT (4/20)
Length of Visible Light 14h 47m
Length of Day
13h 45m
Waxing Gibbous, 71% of the Moon is Illuminated
Apr 20
Waxing Gibbous
Apr 25
Full
May 2
Last Quarter
May 9
New
May 17
First Quarter

Hourly Weather History & Observations

Time (MDT) Temp. Windchill Dew Point Humidity Pressure Visibility Wind Dir Wind Speed Gust Speed Precip Events Conditions
12:53 AM 37.9 °F 35.5 °F 32.0 °F 79% 29.84 in 10.0 mi WNW 3.5 mph - N/A   Overcast
1:53 AM 37.9 °F 32.7 °F 32.0 °F 79% 29.85 in 10.0 mi NW 6.9 mph - N/A   Overcast
2:53 AM 37.0 °F 33.3 °F 32.0 °F 82% 29.85 in 10.0 mi SSW 4.6 mph - N/A   Overcast
3:53 AM 37.0 °F 32.4 °F 33.1 °F 86% 29.85 in 10.0 mi SSW 5.8 mph - 0.01 in   Overcast
4:53 AM 35.1 °F - 32.0 °F 89% 29.86 in 10.0 mi Calm Calm - N/A   Overcast
5:53 AM 32.0 °F 28.7 °F 28.9 °F 88% 29.88 in 10.0 mi SSE 3.5 mph - N/A   Mostly Cloudy
6:53 AM 36.0 °F 33.3 °F 30.9 °F 82% 29.88 in 10.0 mi SE 3.5 mph - N/A   Mostly Cloudy
7:53 AM 42.1 °F 40.2 °F 34.0 °F 73% 29.88 in 10.0 mi West 3.5 mph - N/A   Mostly Cloudy
8:53 AM 48.0 °F - 34.0 °F 58% 29.88 in 10.0 mi South 3.5 mph - N/A   Clear
9:53 AM 52.0 °F - 34.0 °F 50% 29.88 in 10.0 mi North 4.6 mph - N/A   Clear
10:53 AM 54.0 °F - 32.0 °F 43% 29.87 in 10.0 mi NNW 17.3 mph - N/A   Partly Cloudy
11:53 AM 57.9 °F - 30.9 °F 36% 29.85 in 10.0 mi NW 17.3 mph 27.6 mph N/A   Mostly Cloudy
12:53 PM 55.0 °F - 30.9 °F 40% 29.85 in 10.0 mi NNW 16.1 mph 25.3 mph N/A   Overcast
1:53 PM 54.0 °F - 32.0 °F 43% 29.85 in 10.0 mi NW 6.9 mph - 0.00 in   Mostly Cloudy
2:53 PM 57.0 °F - 32.0 °F 39% 29.83 in 10.0 mi Variable 4.6 mph - N/A   Partly Cloudy
3:28 PM 50.0 °F - 37.4 °F 62% 29.85 in 10.0 mi NW 21.9 mph 31.1 mph 0.00 in Rain Light Rain
3:53 PM 52.0 °F - 35.1 °F 53% 29.85 in 10.0 mi NW 13.8 mph - 0.00 in   Mostly Cloudy
4:53 PM 52.0 °F - 36.0 °F 54% 29.86 in 10.0 mi SSW 13.8 mph - N/A   Overcast
5:53 PM 48.9 °F - 39.9 °F 71% 29.89 in 10.0 mi SSW 10.4 mph - 0.03 in   Mostly Cloudy
6:53 PM 48.0 °F - 39.0 °F 71% 29.87 in 10.0 mi South 9.2 mph - N/A   Clear
7:53 PM 46.0 °F 41.9 °F 36.0 °F 68% 29.86 in 10.0 mi SSE 8.1 mph - N/A   Overcast
8:53 PM 45.0 °F 40.6 °F 33.1 °F 63% 29.88 in 10.0 mi West 8.1 mph - N/A   Partly Cloudy
9:53 PM 42.1 °F 34.5 °F 33.1 °F 70% 29.92 in 10.0 mi West 15.0 mph - N/A   Mostly Cloudy
10:53 PM 44.1 °F 38.6 °F 33.1 °F 65% 29.92 in 10.0 mi WNW 10.4 mph - N/A   Overcast
11:53 PM 44.1 °F 37.4 °F 30.9 °F 60% 29.92 in 10.0 mi West 13.8 mph - N/A   Overcast